DOT-1 (44399 NORAD) Tracking and Keplerian Element Data

This shows tracking and keplerian element data for the satellite.

Feedback or suggestion? Click here.




ElementValue
Catalog44399
NameDOT-1
Epoch Orbit429
Epoch Day214.89719172
Epoch Year2019
RAAN176.289
Inclination97.492
Eccentricity0.0025792
Argument of Perigee149.4744
Mean Anonmoly210.7993
Mean Motion15.11612661
Decay Rate3.28E-06
L11 44399U 19038P 19214.89719172 .00000328 00000-0 22958-4 0 9994
L22 44399 97.4920 176.2890 0025792 149.4744 210.7993 15.11612661 4299

Live tracking and technical data element details for DOT-1 (NORAD 44399). DOT-1 can be tracked NOW for your location showing map with azimuth and elevation plus other details from your city location.

Track the satellite on the map from your city or location and see movement details for azimuth, elevation, latitude, longitude, range, height, and movement on the map or in text.







IsCatalogInMostPopularTable: catalog: 44399, numindb: 14
Update: records affected: 1



GetName: 44399 DOT-1

Hit Count: updated at: Wed, 23 Oct 2019 00:07:33 GMT